Location: Unspecified
(0.0000°N, 0.0000°E)
Time: 00:22:19
(UTC+00:00)

ATLAS 5 CENTAUR R/B DEB - Pass Details

Date: 01 May 2025
Orbit: 8950 x 34203 km, 12.6° (Epoch: 13 May)

Event Time Altitude Azimuth Distance (km) Brightness Sun altitude
Rises 15:34:21 0° 260° (W) 17,100 ? 34.2°
Reaches altitude 10° 15:47:01 10° 261° (W) 17,437 ? 31.2°
Maximum altitude 02:50:35 86° 196° (SSW) 11,783 ? -44.5°
Drops below altitude 10° 03:46:37 10° 105° (ESE) 12,943 ? -31.3°
Sets 03:55:53 0° 104° (ESE) 14,331 ? -29.1°
